Overview Statistics Trail Chart Weather Telemetry Raw packets
 

This is the latest recevied weather packets stored in our database for station/object SR8WXL-13. If no packets are shown the sender has not sent any weather packets the latest 10 day(s).

<< 30 31 32 33 34 35 36 >>
Time Temp. Humidity Pressure Rain* Wind** Luminosity Snow
1788011604 20° C 79% 1030.5 hPa 0 mm - - -
1788010796 20° C 79% 1031.2 hPa 0 mm - - -
1788009903 21.11° C 75% 1031.2 hPa 0 mm - - -
1788009174 21.11° C 71% 1031.1 hPa 0 mm - - -
1788008383 22.22° C 63% 1030.9 hPa 0 mm - - -
1788007534 22.78° C 58% 1030.8 hPa 0 mm - - -
1788006680 22.78° C 59% 1030.4 hPa 0 mm - - -
1788005819 22.78° C 58% 1030.4 hPa 0 mm - - -
1788004971 22.78° C 58% 1030.6 hPa 0 mm - - -
1788004163 22.78° C 58% 1030.4 hPa 0 mm - - -
1788003350 22.78° C 59% 1030.6 hPa 0 mm - - -
1788002619 22.78° C 61% 1030.4 hPa 0 mm - - -
1788001783 22.22° C 59% 1030.4 hPa 0 mm - - -
1788001039 22.22° C 61% 1030.3 hPa 0 mm - - -
1788000307 22.22° C 61% 1030.6 hPa 0 mm - - -
1787999470 22.22° C 61% 1030.5 hPa 0 mm - - -
1787998575 21.11° C 60% 1030.5 hPa 0 mm - - -
1787997719 21.11° C 62% 1030.3 hPa 0 mm - - -
1787996833 20° C 62% 1030.5 hPa 0 mm - - -
1787996104 20° C 62% 1030.3 hPa 0 mm - - -
1787995294 20° C 62% 1030.2 hPa 0 mm - - -
1787994534 20° C 61% 1029.9 hPa 0 mm - - -
1787993799 20° C 61% 1029.8 hPa 0 mm - - -
1787992915 18.89° C 64% 1030 hPa 0 mm - - -
1787992062 18.89° C 63% 1029.8 hPa 0 mm - - -

* Rain latest hour (hover to see other rain measurements)
** Current wind speed in m/s (hover to see current wind gust speed)